Terminal Aerodrome Forecast
Issued by NWS Cleveland, OH

Home | Current Version | Previous Version | Graphics & Text | Print | Product List | Glossary On
Versions: 1 2 3 4 5 6 7 8 9 10 11 12 13 14 15 16 17 18 19 20
000
FTUS41 KCLE 300500
TAFCAK
TAF
KCAK 300520Z 3006/3106 21015G25KT P6SM OVC035
      TEMPO 3006/3010 6SM -SHRASN OVC015
     FM301000 26012G18KT P6SM OVC040
      TEMPO 3010/3014 OVC025
     FM301500 25011G16KT P6SM SCT040 BKN250
      TEMPO 3015/3018 BKN040
     FM301800 26015G25KT P6SM SCT250
     FM302200 26014G22KT P6SM SCT120 BKN250
     FM310200 22007KT P6SM OVC120=

USA.gov is the U.S. government's official web portal to all federal, state and local government web resources and services.